Wind_Speed
24 25 28 31 32 33 36 36 38 38 38 42 48 51 56 58 59 60 62 63 60 53 52 51 53 54 56 59 59 61 64 58 55 60 62 58 57 59 61 63 68 66 68 74
31 31 35 37 36 37 40 43 44 43 44 45 50 56 60 61 57 54 56 59 57 50 49 50 45 41 44 45 49 50 52 51 48 49 48 51 54 59 64 69 72 71 77 81
35 37 39 39 39 42 41 43 49 50 50 53 55 61 62 60 55 50 46 51 43 38 36 38 32 37 35 39 41 42 42 41 42 47 51 54 58 65 70 74 79 81 83 84
37 39 41 41 42 44 46 47 49 53 53 55 58 62 58 56 56 49 39 39 36 38 33 25 26 29 31 36 37 33 35 41 47 54 58 62 65 71 76 81 86 88 88 89
39 39 43 43 46 47 48 48 50 54 55 57 61 56 53 48 46 45 33 29 29 23 21 23 18 23 32 36 34 38 42 47 52 55 57 62 69 76 82 87 89 92 94 96
42 40 44 47 48 48 51 51 54 52 55 58 58 54 50 43 40 42 30 28 13 25 23 25 30 38 47 42 44 46 49 52 55 57 61 66 72 78 83 88 91 94 97 100
47 45 47 50 53 55 52 51 55 59 55 56 56 52 44 40 35 34 35 28 20 20 31 32 40 57 52 47 46 52 54 58 60 63 68 73 78 83 86 90 94 97 100 103
51 51 51 50 53 55 57 55 54 55 59 59 54 50 44 39 29 30 32 34 29 34 44 50 60 60 59 51 54 56 61 64 66 71 75 79 84 88 91 96 98 100 98 91
53 54 57 54 55 54 56 57 55 55 57 58 55 47 44 37 32 30 31 33 37 40 44 49 54 61 59 55 57 63 66 69 72 76 80 86 90 95 98 99 98 90 81 75
57 56 61 60 56 56 57 58 56 56 54 56 54 48 42 37 32 32 33 36 38 38 42 50 55 54 55 57 62 67 72 73 76 81 86 92 95 98 101 95 88 80 72 64
63 60 60 64 58 57 57 58 54 56 58 54 51 47 44 40 35 35 36 37 40 43 48 51 53 54 59 62 66 72 75 80 83 88 91 95 100 99 91 80 71 64 55 53
60 60 58 62 60 58 56 58 58 56 56 55 48 43 40 41 41 40 40 44 45 48 51 53 56 60 63 67 71 74 78 84 89 94 97 102 98 87 75 62 53 51 45 39
57 53 55 58 57 56 56 60 61 56 52 48 44 40 38 40 42 43 46 46 49 53 55 57 60 64 68 72 75 80 85 90 94 98 103 97 85 75 64 54 50 46 38 34
55 51 51 53 59 58 60 61 56 50 47 43 41 39 41 41 42 45 47 50 52 55 59 61 62 66 73 78 82 86 91 96 100 103 91 79 71 62 54 48 47 44 40 36
52 53 52 55 58 61 58 55 52 48 43 40 43 42 41 46 47 47 49 52 55 59 62 66 70 76 80 85 90 95 99 102 99 87 75 69 61 54 47 47 46 46 42 38
46 52 54 59 61 52 53 47 47 44 42 41 43 44 47 47 51 56 58 62 66 67 70 74 77 83 89 94 98 100 99 88 79 72 66 59 52 48 50 50 48 44 40 38
45 46 47 52 50 48 50 48 47 45 44 44 45 48 49 50 54 57 62 67 70 73 76 80 88 91 94 93 86 79 74 71 69 63 57 51 52 54 51 45 40 36 35 33
44 44 43 45 47 47 46 49 49 48 48 46 49 53 55 57 60 63 67 71 75 80 85 91 95 86 81 81 72 69 68 65 60 54 52 53 50 45 39 37 33 28 25 22
46 48 47 45 46 46 46 46 50 53 52 52 53 58 63 64 66 68 72 76 82 88 91 86 76 80 76 72 67 64 60 56 53 54 50 44 41 37 35 33 26 18 14 9
47 48 47 47 46 43 49 52 53 56 55 56 60 64 66 70 71 75 80 84 86 77 74 71 68 70 66 63 60 56 53 54 49 45 43 40 36 32 26 21 11 6 5 4
48 49 49 50 47 46 52 56 56 58 57 58 62 65 69 74 79 78 76 71 72 69 65 67 60 58 58 54 52 52 48 45 41 37 33 28 25 19 10 3 6 11 11 15
46 48 49 48 48 49 51 53 56 59 63 66 67 70 73 67 66 66 65 62 59 58 57 54 54 52 50 51 47 44 40 37 34 30 23 16 8 1 6 15 18 20 25 26
41 42 41 44 48 52 57 60 63 62 62 62 63 63 63 60 58 59 54 53 53 50 50 49 48 49 45 43 40 37 32 28 23 17 11 3 4 10 21 24 30 31 31 31
45 46 48 51 54 52 53 53 54 55 61 63 58 61 56 55 55 49 46 49 46 45 43 45 45 43 39 34 29 25 20 14 10 6 6 9 17 26 29 36 34 32 33 33
43 41 42 45 46 48 51 53 54 55 57 54 54 53 49 47 42 42 42 39 38 39 40 41 38 33 29 24 20 16 13 11 11 16 21 27 30 36 38 35 34 35 33 31
46 44 44 46 47 49 54 55 53 52 48 47 47 43 38 38 36 36 32 31 33 35 33 31 30 30 27 25 22 21 20 21 26 31 33 37 41 38 37 37 34 31 28 28
Wind_Direction
278 287 295 296 298 301 302 305 307 303 298 299 297 297 295 292 293 294 289 287 284 280 275 275 274 277 280 283 284 281 282 282 281 278 281 282 281 282 282 282 280 285 286 282
280 289 290 293 296 296 300 304 304 303 301 300 302 301 300 299 296 290 284 284 287 286 280 276 275 277 278 282 283 286 283 284 280 281 283 285 286 288 289 289 289 290 289 288
282 286 290 294 296 296 303 303 304 305 304 306 311 308 308 304 300 299 293 290 290 290 287 283 278 271 280 279 278 277 284 289 289 288 286 287 290 292 294 295 294 293 291 290
281 283 287 291 290 295 300 301 304 304 305 310 312 313 310 307 304 302 299 288 286 286 291 289 279 280 278 273 279 289 291 288 288 292 295 297 297 295 295 296 297 297 296 293
280 282 285 288 292 296 297 300 302 304 307 309 314 315 309 309 303 298 298 287 296 302 278 296 285 272 277 291 290 284 283 285 288 293 295 296 296 299 300 301 302 301 299 298
281 283 285 287 290 293 298 301 302 303 306 310 316 316 313 310 297 299 302 292 315 302 293 275 272 275 289 291 284 286 285 292 294 294 294 294 293 295 298 298 297 296 294 293
279 281 283 289 294 296 299 300 303 305 306 310 316 314 312 311 310 298 294 297 285 272 252 271 258 284 283 279 281 283 291 291 292 292 293 295 299 300 298 298 297 297 297 295
284 283 283 287 293 294 298 299 300 303 307 311 316 313 311 312 300 286 287 289 283 270 253 260 272 280 281 284 285 291 292 291 291 295 298 301 300 301 301 303 303 301 300 298
285 286 286 287 288 292 295 297 299 303 307 310 312 312 310 312 305 295 284 285 289 287 277 276 279 275 281 285 287 290 294 295 296 299 303 304 305 306 306 306 305 304 302 299
285 287 289 289 290 292 292 296 302 304 306 309 309 310 311 306 301 295 287 287 288 284 276 272 275 283 287 289 293 293 294 299 300 302 303 304 306 309 310 309 307 305 302 300
283 284 285 286 289 291 295 294 298 305 306 307 303 307 309 309 302 294 294 291 287 284 283 284 288 291 291 293 294 296 298 299 301 302 304 306 309 309 309 308 307 304 300 299
277 280 281 285 289 289 291 293 299 301 301 302 301 305 309 302 301 298 291 289 289 286 284 286 289 292 294 293 292 294 295 298 301 304 306 307 308 309 307 305 310 313 306 307
282 280 280 281 283 287 289 292 297 300 298 295 298 301 301 299 296 293 294 295 294 291 290 290 290 292 291 292 294 297 301 302 303 304 306 308 308 307 306 302 310 317 315 313
289 280 279 281 284 285 289 295 297 297 295 292 292 296 300 298 296 295 294 291 289 289 290 292 293 293 295 296 298 299 300 301 302 306 308 308 307 305 301 302 308 311 312 313
280 280 280 282 283 289 293 293 294 294 290 290 290 294 297 295 296 294 292 293 292 291 293 295 296 297 299 299 300 300 301 302 306 306 308 307 304 302 301 302 304 304 302 301
276 277 282 289 291 289 291 293 295 293 290 288 288 289 291 295 298 299 299 297 297 299 299 298 298 298 299 300 302 301 302 305 306 307 306 304 303 304 304 303 301 298 294 293
279 279 281 284 286 293 295 297 297 295 295 293 291 291 292 294 293 295 298 298 298 298 299 301 301 303 305 304 303 304 306 306 306 306 305 304 306 305 305 305 303 297 293 289
281 279 276 274 280 287 294 295 295 294 292 292 294 295 294 292 295 298 297 298 300 302 303 302 304 304 303 304 306 307 306 306 305 304 305 306 306 306 308 310 310 305 298 293
280 284 280 276 282 285 287 291 292 291 292 294 295 295 296 298 300 299 299 299 301 300 302 303 303 303 305 306 306 305 306 304 304 305 305 303 301 303 306 308 309 313 308 319
278 281 283 282 286 289 293 291 290 289 289 293 295 296 299 300 299 298 298 301 302 303 306 307 303 303 304 306 305 305 305 307 305 304 300 297 297 300 301 308 319 338 50 52
278 277 282 284 289 288 289 290 289 290 291 293 294 296 296 296 298 300 301 303 305 306 303 303 306 306 306 306 306 308 308 307 308 305 301 302 300 302 297 305 91 103 84 79
285 281 285 287 288 291 291 292 292 293 296 296 297 297 300 304 304 305 305 306 304 302 305 308 309 309 309 310 310 311 312 309 305 306 308 305 305 198 150 122 115 102 103 94
287 282 286 291 293 293 292 292 293 295 297 300 300 302 304 306 308 307 307 307 309 314 313 314 314 315 315 316 316 314 312 313 314 318 326 320 153 134 127 118 114 111 104 97
288 288 287 288 292 295 295 297 299 301 302 302 305 306 308 307 306 308 308 312 317 317 321 321 322 324 324 321 322 325 327 331 344 13 56 99 117 122 118 118 116 110 104 94
286 291 293 292 293 294 295 300 304 303 300 304 305 305 306 306 306 307 315 320 324 329 332 334 335 338 342 347 353 2 19 43 69 86 103 115 116 117 117 115 110 103 98 92
283 288 292 296 298 297 298 303 304 300 302 303 306 307 305 305 307 317 326 332 340 345 352 3 9 14 19 26 36 50 65 80 93 104 110 112 113 111 106 104 101 96 93 89
Height
10864 10863 10860 10858 10856 10852 10849 10847 10844 10841 10838 10834 10827 10822 10813 10808 10804 10796 10783 10779 10783 10792 10788 10782 10774 10769 10762 10756 10755 10751 10747 10747 10739 10730 10728 10725 10720 10713 10707 10701 10694 10700 10696 10685
10858 10857 10852 10849 10848 10845 10841 10836 10832 10830 10827 10824 10818 10808 10799 10793 10789 10783 10773 10765 10765 10771 10774 10771 10766 10760 10753 10748 10742 10740 10734 10731 10728 10723 10719 10713 10705 10697 10690 10684 10682 10682 10674 10665
10852 10848 10843 10841 10839 10833 10833 10828 10820 10816 10812 10807 10803 10790 10783 10773 10771 10767 10762 10751 10752 10753 10758 10759 10756 10752 10748 10742 10737 10732 10727 10721 10715 10709 10703 10699 10694 10683 10675 10671 10664 10660 10653 10643
10844 10841 10836 10834 10830 10826 10823 10818 10812 10804 10801 10796 10792 10779 10769 10760 10750 10748 10748 10743 10741 10739 10744 10745 10745 10740 10738 10730 10727 10725 10717 10708 10700 10695 10691 10686 10678 10669 10661 10652 10642 10633 10626 10616
10835 10834 10828 10824 10820 10817 10813 10810 10804 10793 10789 10785 10778 10773 10760 10753 10742 10736 10737 10738 10739 10738 10735 10734 10728 10728 10723 10721 10718 10711 10704 10700 10695 10690 10684 10674 10664 10653 10641 10632 10622 10610 10600 10591
10825 10825 10818 10813 10811 10808 10803 10798 10791 10787 10780 10773 10767 10758 10752 10746 10737 10729 10731 10729 10731 10729 10726 10723 10720 10716 10713 10710 10703 10697 10693 10691 10685 10678 10671 10663 10654 10643 10631 10619 10607 10595 10582 10569
10814 10815 10809 10802 10796 10791 10794 10789 10780 10769 10771 10764 10758 10750 10743 10736 10731 10725 10717 10718 10721 10719 10716 10719 10707 10704 10698 10692 10688 10685 10683 10677 10670 10663 10655 10646 10635 10625 10613 10600 10586 10571 10556 10537
10801 10800 10799 10796 10788 10782 10776 10775 10773 10766 10754 10749 10749 10740 10732 10730 10726 10719 10715 10713 10715 10714 10711 10705 10696 10687 10678 10677 10676 10674 10667 10660 10652 10644 10634 10624 10614 10602 10588 10573 10557 10540 10524 10510
10790 10784 10781 10783 10777 10774 10764 10762 10760 10755 10746 10739 10735 10731 10724 10724 10715 10712 10711 10709 10706 10701 10696 10690 10681 10670 10667 10668 10664 10657 10647 10640 10633 10623 10614 10601 10588 10575 10563 10547 10530 10513 10500 10488
10777 10775 10763 10763 10767 10760 10757 10750 10744 10740 10737 10727 10723 10721 10716 10712 10707 10703 10700 10700 10695 10689 10681 10671 10663 10662 10660 10655 10648 10637 10629 10622 10613 10604 10593 10581 10567 10551 10535 10520 10505 10491 10479 10470
10762 10760 10752 10747 10754 10745 10741 10739 10737 10727 10720 10719 10713 10710 10705 10700 10698 10691 10687 10684 10678 10673 10665 10659 10655 10651 10645 10639 10628 10618 10610 10601 10593 10584 10572 10559 10545 10530 10513 10501 10488 10475 10465 10456
10745 10746 10743 10732 10735 10732 10729 10724 10721 10719 10711 10705 10703 10702 10696 10690 10685 10682 10678 10671 10666 10660 10654 10649 10643 10637 10630 10621 10612 10605 10595 10585 10574 10562 10550 10536 10521 10507 10496 10486 10476 10463 10452 10445
10731 10734 10728 10719 10720 10716 10713 10709 10706 10705 10701 10695 10693 10690 10687 10681 10676 10668 10662 10658 10650 10642 10637 10634 10630 10624 10614 10603 10595 10586 10574 10562 10551 10539 10527 10512 10498 10486 10478 10470 10462 10454 10445 10437
10717 10718 10716 10712 10703 10704 10701 10697 10693 10691 10688 10684 10681 10678 10672 10670 10664 10659 10654 10648 10639 10632 10626 10621 10615 10605 10595 10586 10577 10568 10555 10544 10530 10517 10503 10491 10480 10472 10464 10457 10451 10444 10437 10430
10704 10702 10703 10699 10694 10691 10688 10684 10680 10678 10674 10675 10669 10667 10664 10655 10651 10647 10641 10634 10625 10619 10614 10606 10598 10587 10577 10565 10554 10543 10531 10518 10506 10493 10484 10474 10464 10457 10451 10445 10440 10433 10428 10423
10696 10691 10688 10682 10677 10678 10677 10674 10670 10666 10666 10666 10663 10660 10651 10645 10636 10628 10622 10614 10606 10601 10596 10586 10577 10566 10557 10545 10532 10517 10504 10493 10484 10474 10467 10459 10451 10444 10438 10431 10425 10419 10416 10412
10684 10681 10680 10674 10668 10664 10663 10663 10657 10655 10653 10651 10649 10645 10641 10637 10629 10621 10611 10600 10593 10586 10578 10568 10556 10545 10533 10518 10505 10494 10485 10475 10466 10458 10452 10445 10437 10430 10424 10417 10412 10407 10403 10402
10671 10669 10669 10665 10661 10658 10656 10650 10645 10642 10640 10640 10636 10630 10626 10620 10616 10610 10598 10588 10578 10568 10559 10546 10534 10522 10509 10499 10487 10477 10467 10459 10451 10445 10438 10431 10424 10418 10413 10407 10402 10398 10395 10393
10658 10655 10654 10654 10652 10648 10647 10643 10635 10630 10628 10625 10622 10613 10607 10605 10600 10590 10580 10571 10563 10551 10539 10527 10514 10502 10491 10480 10471 10461 10452 10445 10438 10430 10423 10417 10412 10409 10405 10400 10396 10393 10391 10391
10647 10643 10640 10641 10641 10641 10631 10627 10624 10616 10617 10613 10606 10599 10594 10585 10580 10572 10564 10553 10542 10530 10519 10506 10495 10486 10477 10466 10456 10447 10438 10429 10422 10416 10410 10406 10402 10400 10398 10395 10393 10392 10391 10391
10634 10632 10630 10628 10630 10628 10621 10615 10612 10605 10604 10601 10594 10588 10580 10572 10562 10555 10545 10533 10524 10513 10502 10493 10482 10472 10462 10451 10441 10432 10423 10415 10409 10403 10398 10396 10393 10393 10392 10392 10393 10394 10394 10394
10621 10621 10620 10617 10616 10613 10607 10603 10599 10594 10588 10583 10580 10572 10566 10555 10547 10538 10529 10520 10510 10499 10490 10479 10468 10457 10447 10436 10426 10417 10410 10404 10397 10392 10390 10388 10387 10387 10389 10392 10395 10396 10398 10399
10610 10610 10610 10606 10604 10600 10593 10588 10584 10581 10576 10569 10561 10555 10547 10540 10532 10523 10514 10505 10495 10487 10476 10466 10455 10444 10433 10422 10414 10406 10399 10394 10389 10386 10385 10384 10384 10386 10390 10395 10398 10401 10403 10405
10597 10598 10600 10598 10592 10588 10578 10573 10571 10569 10561 10552 10546 10540 10533 10526 10518 10511 10502 10495 10488 10478 10468 10457 10445 10432 10422 10413 10406 10399 10393 10389 10386 10385 10384 10385 10388 10391 10396 10400 10404 10407 10410 10411
10587 10588 10588 10585 10581 10576 10566 10563 10562 10557 10548 10543 10536 10530 10524 10516 10509 10503 10497 10490 10481 10472 10462 10450 10438 10427 10417 10408 10401 10396 10391 10389 10388 10387 10389 10392 10396 10399 10405 10409 10413 10416 10418 10419
10573 10578 10576 10573 10569 10563 10555 10553 10550 10542 10539 10534 10527 10520 10513 10508 10503 10498 10492 10485 10479 10470 10460 10449 10438 10428 10418 10411 10405 10400 10398 10396 10395 10397 10400 10403 10408 10412 10417 10420 10423 10425 10426 10426